• In Uzbekistan
  • List of Countries
  • For 7 days
  • Water Temperature
  • Satellite Maps
  • Weather Map
  • Weather Widgets
  • user-avatar
    Login

    Hourly Weather Kamloops

    Today, 23 November, Thursday

    Time Temperature Precipitation Wind Pressure Humidity
    00:00 +8°C° 0.6 mm 4 mps 696 mmHg 93%
    01:00 +8°C° 0.6 mm 5 mps 696 mmHg 93%
    02:00 +8°C° 0 mm 4 mps 696 mmHg 92%
    03:00 +7°C° 0 mm 4 mps 696 mmHg 91%
    04:00 +6°C° 0 mm 4 mps 695 mmHg 90%
    05:00 +7°C° 0.1 mm 3 mps 695 mmHg 91%
    06:00 +7°C° 0.1 mm 3 mps 695 mmHg 91%
    07:00 +7°C° 0.1 mm 3 mps 694 mmHg 91%
    08:00 +7°C° 0.1 mm 3 mps 694 mmHg 90%
    09:00 +7°C° 0.1 mm 3 mps 694 mmHg 89%
    10:00 +7°C° 0.1 mm 3 mps 694 mmHg 89%
    11:00 +6°C° 0 mm 4 mps 694 mmHg 85%
    12:00 +7°C° 0 mm 4 mps 694 mmHg 81%
    13:00 +7°C° 0 mm 4 mps 694 mmHg 77%
    14:00 +6°C° 0 mm 4 mps 694 mmHg 79%
    15:00 +5°C° 0 mm 3 mps 694 mmHg 82%
    16:00 +4°C° 0 mm 3 mps 695 mmHg 85%
    17:00 +4°C° 0 mm 2 mps 695 mmHg 88%
    18:00 +3°C° 0 mm 2 mps 695 mmHg 90%
    19:00 +2°C° 0 mm 2 mps 696 mmHg 93%
    20:00 +2°C° 0 mm 2 mps 696 mmHg 94%
    21:00 +2°C° 0 mm 2 mps 696 mmHg 95%
    22:00 +1°C° 0 mm 2 mps 697 mmHg 96%
    23:00 +2°C° 0 mm 2 mps 697 mmHg 94%

    Tomorrow, 24 November, Friday

    Time Temperature Precipitation Wind Pressure Humidity
    00:00 +2°C° 0 mm 2 mps 697 mmHg 93%
    01:00 +3°C° 0 mm 2 mps 698 mmHg 92%
    02:00 +2°C° 0.1 mm 3 mps 698 mmHg 92%
    03:00 +2°C° 0.1 mm 3 mps 698 mmHg 91%
    04:00 +2°C° 0.1 mm 3 mps 699 mmHg 90%
    05:00 +1°C° 0 mm 3 mps 699 mmHg 91%
    06:00 +2°C° 0 mm 2 mps 700 mmHg 91%
    07:00 +2°C° 0 mm 2 mps 700 mmHg 92%
    08:00 +2°C° 0 mm 2 mps 701 mmHg 89%
    09:00 +2°C° 0 mm 3 mps 701 mmHg 86%
    10:00 +3°C° 0 mm 3 mps 702 mmHg 83%
    11:00 +4°C° 0 mm 3 mps 702 mmHg 80%
    12:00 +4°C° 0 mm 3 mps 702 mmHg 78%
    13:00 +5°C° 0 mm 4 mps 702 mmHg 76%
    14:00 +4°C° 0 mm 4 mps 702 mmHg 79%
    15:00 +4°C° 0 mm 3 mps 702 mmHg 82%
    16:00 +3°C° 0 mm 3 mps 702 mmHg 85%
    17:00 +3°C° 0 mm 3 mps 702 mmHg 87%
    18:00 +3°C° 0 mm 4 mps 702 mmHg 88%
    19:00 +3°C° 0 mm 4 mps 702 mmHg 89%
    20:00 +3°C° 0 mm 4 mps 702 mmHg 89%
    21:00 +3°C° 0 mm 4 mps 702 mmHg 89%
    22:00 +3°C° 0 mm 4 mps 702 mmHg 89%
    23:00 +3°C° 0.1 mm 4 mps 702 mmHg 89%

    Day after tomorrow, 25 November, Saturday

    Time Temperature Precipitation Wind Pressure Humidity
    00:00 +3°C° 0.1 mm 4 mps 702 mmHg 90%
    01:00 +2°C° 0.1 mm 3 mps 702 mmHg 90%
    02:00 +2°C° 0.1 mm 3 mps 702 mmHg 90%
    03:00 +2°C° 0.1 mm 3 mps 702 mmHg 90%
    04:00 +2°C° 0.1 mm 3 mps 702 mmHg 90%
    05:00 +2°C° 0 mm 3 mps 702 mmHg 91%
    06:00 +2°C° 0 mm 3 mps 702 mmHg 91%
    07:00 +2°C° 0 mm 3 mps 702 mmHg 92%
    08:00 +2°C° 0 mm 3 mps 702 mmHg 90%
    09:00 +3°C° 0 mm 3 mps 702 mmHg 88%
    10:00 +3°C° 0 mm 3 mps 702 mmHg 86%
    11:00 +4°C° 0 mm 3 mps 701 mmHg 84%
    12:00 +4°C° 0 mm 3 mps 701 mmHg 82%
    13:00 +5°C° 0 mm 3 mps 700 mmHg 81%
    14:00 +4°C° 0.1 mm 3 mps 700 mmHg 83%
    15:00 +4°C° 0.1 mm 3 mps 699 mmHg 86%
    16:00 +3°C° 0.1 mm 3 mps 698 mmHg 89%
    17:00 +3°C° 0.2 mm 3 mps 698 mmHg 89%
    18:00 +3°C° 0.2 mm 3 mps 697 mmHg 90%
    19:00 +3°C° 0.2 mm 3 mps 696 mmHg 90%
    20:00 +3°C° 0.1 mm 4 mps 696 mmHg 89%
    21:00 +3°C° 0.1 mm 4 mps 695 mmHg 89%
    22:00 +3°C° 0.1 mm 4 mps 694 mmHg 88%
    23:00 +3°C° 0.2 mm 4 mps 693 mmHg 88%

    26 November, Sunday

    Time Temperature Precipitation Wind Pressure Humidity
    00:00 +3°C° 0.2 mm 4 mps 692 mmHg 89%
    01:00 +3°C° 0.2 mm 4 mps 691 mmHg 89%
    02:00 +4°C° 0.4 mm 4 mps 690 mmHg 89%
    03:00 +4°C° 0.4 mm 4 mps 690 mmHg 88%
    04:00 +5°C° 0.4 mm 4 mps 689 mmHg 88%
    05:00 +5°C° 0.3 mm 4 mps 689 mmHg 89%
    06:00 +5°C° 0.3 mm 4 mps 688 mmHg 90%
    07:00 +4°C° 0.3 mm 4 mps 688 mmHg 91%
    08:00 +5°C° 0.2 mm 5 mps 688 mmHg 88%
    09:00 +5°C° 0.2 mm 6 mps 688 mmHg 85%
    10:00 +5°C° 0.2 mm 7 mps 687 mmHg 83%
    11:00 +5°C° 0.1 mm 7 mps 689 mmHg 77%
    12:00 +4°C° 0.1 mm 7 mps 690 mmHg 72%
    13:00 +2°C° 0.1 mm 8 mps 691 mmHg 66%
    14:00 +2°C° 0 mm 6 mps 692 mmHg 69%
    15:00 +1°C° 0 mm 5 mps 693 mmHg 72%
    16:00 0°C° 0 mm 4 mps 694 mmHg 74%
    17:00 -1°C° 0 mm 4 mps 695 mmHg 77%
    18:00 0°C° 0 mm 3 mps 695 mmHg 80%
    19:00 -1°C° 0 mm 3 mps 696 mmHg 84%
    20:00 -1°C° 0 mm 2 mps 696 mmHg 85%
    21:00 -1°C° 0 mm 2 mps 697 mmHg 87%
    22:00 -1°C° 0 mm 2 mps 697 mmHg 89%
    23:00 +1°C° 0 mm 1 mps 697 mmHg 89%

    27 November, Monday

    Time Temperature Precipitation Wind Pressure Humidity
    00:00 +1°C° 0 mm 1 mps 697 mmHg 90%
    01:00 0°C° 0 mm 1 mps 697 mmHg 91%
    02:00 +1°C° 0 mm 1 mps 698 mmHg 90%
    03:00 +1°C° 0 mm 1 mps 698 mmHg 90%
    04:00 +1°C° 0 mm 1 mps 698 mmHg 90%
    05:00 +1°C° 0.2 mm 1 mps 699 mmHg 90%
    06:00 +1°C° 0.2 mm 1 mps 700 mmHg 91%
    07:00 +1°C° 0.2 mm 1 mps 700 mmHg 92%
    08:00 +2°C° 0.1 mm 1 mps 701 mmHg 89%
    09:00 +2°C° 0.1 mm 1 mps 701 mmHg 87%
    10:00 +3°C° 0.1 mm 1 mps 702 mmHg 84%
    11:00 +4°C° 0.1 mm 1 mps 702 mmHg 81%
    12:00 +3°C° 0.1 mm 2 mps 703 mmHg 78%
    13:00 +4°C° 0.1 mm 2 mps 703 mmHg 75%
    14:00 +3°C° 0 mm 2 mps 703 mmHg 78%
    15:00 +2°C° 0 mm 2 mps 704 mmHg 81%
    16:00 +1°C° 0 mm 2 mps 704 mmHg 84%
    17:00 +1°C° 0 mm 2 mps 705 mmHg 84%
    18:00 +1°C° 0 mm 2 mps 705 mmHg 84%
    19:00 +1°C° 0 mm 2 mps 706 mmHg 85%
    20:00 +1°C° 0.1 mm 2 mps 706 mmHg 86%
    21:00 +1°C° 0.1 mm 2 mps 706 mmHg 87%
    22:00 +1°C° 0.1 mm 2 mps 706 mmHg 88%
    23:00 +1°C° 0 mm 2 mps 706 mmHg 89%

    28 November, Tuesday

    Time Temperature Precipitation Wind Pressure Humidity
    00:00 -1°C° 0 mm 2 mps 706 mmHg 91%
    01:00 -1°C° 0 mm 2 mps 705 mmHg 92%
    02:00 -1°C° 0 mm 2 mps 705 mmHg 92%
    03:00 +1°C° 0 mm 2 mps 705 mmHg 92%
    04:00 +1°C° 0 mm 2 mps 705 mmHg 93%
    05:00 +1°C° 0 mm 2 mps 705 mmHg 93%
    06:00 +1°C° 0 mm 2 mps 705 mmHg 94%
    07:00 +2°C° 0 mm 1 mps 706 mmHg 94%
    08:00 +3°C° 0 mm 1 mps 706 mmHg 92%
    09:00 +4°C° 0 mm 1 mps 707 mmHg 89%
    10:00 +5°C° 0 mm 1 mps 707 mmHg 87%
    11:00 +6°C° 0 mm 1 mps 707 mmHg 87%
    12:00 +7°C° 0 mm 1 mps 707 mmHg 86%
    13:00 +8°C° 0 mm 1 mps 707 mmHg 86%
    14:00 +7°C° 0 mm 1 mps 707 mmHg 89%
    15:00 +6°C° 0 mm 1 mps 707 mmHg 93%
    16:00 +5°C° 0 mm 1 mps 707 mmHg 96%
    17:00 +5°C° 0.3 mm 1 mps 706 mmHg 96%
    18:00 +4°C° 0.3 mm 2 mps 706 mmHg 97%
    19:00 +4°C° 0.3 mm 2 mps 706 mmHg 97%
    20:00 +4°C° 0.1 mm 2 mps 705 mmHg 97%
    21:00 +4°C° 0.1 mm 2 mps 704 mmHg 97%
    22:00 +4°C° 0.1 mm 2 mps 704 mmHg 97%
    23:00 +4°C° 0 mm 2 mps 703 mmHg 97%
    Show more